Regional Weather Roundup
Issued by NWS Charleston, WV

Home | Current Version | Previous Version | Graphics & Text | Print | Product List | Glossary On
Versions: 1 2 3 4 5 6 7 8 9 10 11 12 13 14 15 16 17 18 19 20 21 22 23 24 25 26 27
000
ASUS41 KRLX 190410
RWRRLX
West Virginia Regional Weather Roundup
National Weather Service Charleston WV
1200 AM EDT SAT APR 19 2014

Note: "fair" indicates few or no clouds below 12,000 feet with no
significant weather and/or obstructions to visibility.

WVZ003-190500-
Northern Panhandle of West Virginia

CITY           SKY/WX    TMP DP  RH WIND       PRES   REMARKS
WHEELING       MOCLDY    55  35  47 N7        30.23R
$$

WVZ009-190500-
Northwest West Virginia

CITY           SKY/WX    TMP DP  RH WIND       PRES   REMARKS
PARKERSBURG    CLOUDY    54  38  54 CALM      30.24F
$$

WVZ006-190500-
Western West Virginia

CITY           SKY/WX    TMP DP  RH WIND       PRES   REMARKS
HUNTINGTON     CLOUDY    59  35  40 N6        30.20F
$$

WVZ015-190500-
West Central West Virginia

CITY           SKY/WX    TMP DP  RH WIND       PRES   REMARKS
CHARLESTON     CLOUDY    55  42  61 CALM      30.20S
$$

WVZ031-190500-
North Central West Virginia

CITY           SKY/WX    TMP DP  RH WIND       PRES   REMARKS
CLARKSBURG     CLOUDY    54  33  45 CALM      30.21S
MORGANTOWN     CLOUDY    57  31  37 CALM      30.23R
$$

WVZ035-042-045-190500-
South Central West Virginia

CITY           SKY/WX    TMP DP  RH WIND       PRES   REMARKS
BECKLEY        CLOUDY    51  31  46 N9        30.22F
BLUEFIELD      CLOUDY    54  30  40 E3        30.23F
LEWISBURG      CLOUDY    48  33  56 CALM      30.23F
$$

WVZ047-190500-
Northern Mountains of West Virginia

CITY           SKY/WX    TMP DP  RH WIND       PRES   REMARKS
ELKINS         CLOUDY    45  35  68 CALM      30.24R
$$

WVZ052-190500-
Eastern Panhandle of West Virginia

CITY           SKY/WX    TMP DP  RH WIND       PRES   REMARKS
MARTINSBURG    CLOUDY    46  35  65 CALM      30.26S
PETERSBURG     CLOUDY    52  44  76 NW3       30.26S
$$



USA.gov is the U.S. government's official web portal to all federal, state and local government web resources and services.